Moriarty, NM

8:54 PM MDT on October 18, 2017 (GMT -0600)
Moriarty

Weather History for K0E0 - October, 2013

Change the Weather History Date:

Wednesday, October 16, 2013

  Actual Average (KABQ) Record (KABQ)
Temperature  
Mean Temperature 43 °F -  
Max Temperature 55 °F 69 °F 84 °F (1909)
Min Temperature 31 °F 42 °F 27 °F (1899)
Degree Days  
Heating Degree Days 22    
Moisture  
Dew Point 29 °F    
Average Humidity 66    
Maximum Humidity 95    
Minimum Humidity 31    
Precipitation  
Precipitation 0.04 in - - ()
Sea Level Pressure  
Sea Level Pressure 30.17 in    
Wind  
Wind Speed 8 mph (WNW)    
Max Wind Speed 20 mph    
Max Gust Speed 24 mph    
Visibility 9 miles    
Events Rain , Snow    
Averages and records for this station are not official NWS values.
T = Trace of Precipitation, MM = Missing Value Source: NWS Daily Summary

Daily Weather History Graph

Daily Weather History Graph

Search for Another Location

Airport or City:

Trip Planner

Search our weather history database for the weather conditions in past years. The results will help you decide how hot, cold, wet, or windy it might be!

Date:

Astronomy

Oct. 16, 2013 Rise Set
Actual Time 7:11 AM MDT 6:27 PM MDT
Civil Twilight 6:45 AM MDT 6:52 PM MDT
Nautical Twilight 6:16 AM MDT 7:22 PM MDT
Astronomical Twilight 5:46 AM MDT 7:51 PM MDT
Moon 5:05 PM MDT (10/16) 4:46 AM MDT (10/16)
Length of Visible Light 12h 07m
Length of Day
11h 16m
Waxing Gibbous, 94% of the Moon is Illuminated
Oct 16
Waxing Gibbous
Oct 18
Full
Oct 26
Last Quarter
Nov 3
New
Nov 9
First Quarter

Hourly Weather History & Observations

Time (MDT) Temp. Windchill Dew Point Humidity Pressure Visibility Wind Dir Wind Speed Gust Speed Precip Events Conditions
12:15 AM 40.6 °F 33.8 °F 30.9 °F 68% 30.18 in 10.0 mi ESE 11.5 mph - N/A   Overcast
12:35 AM 41.0 °F 33.5 °F 30.6 °F 66% 30.18 in 10.0 mi SE 13.8 mph 18.4 mph N/A   Overcast
12:55 AM 40.5 °F 32.5 °F 29.7 °F 65% 30.18 in 10.0 mi ESE 15.0 mph - N/A   Overcast
1:15 AM 40.1 °F 33.6 °F 30.0 °F 67% 30.18 in 10.0 mi ESE 10.4 mph 16.1 mph N/A   Overcast
1:35 AM 39.7 °F 32.3 °F 30.2 °F 69% 30.17 in 10.0 mi ESE 12.7 mph - N/A   Overcast
1:55 AM 39.6 °F 31.7 °F 30.0 °F 69% 30.18 in 10.0 mi ESE 13.8 mph 18.4 mph N/A   Overcast
2:15 AM 39.2 °F 31.2 °F 30.4 °F 71% 30.18 in 10.0 mi ESE 13.8 mph 18.4 mph N/A   Overcast
2:35 AM 37.4 °F 32.8 °F 32.0 °F 81% 30.18 in 10.0 mi East 5.8 mph 16.1 mph N/A   Light Drizzle
2:55 AM 36.7 °F 32.0 °F 32.4 °F 84% 30.18 in 7.0 mi East 5.8 mph - N/A Rain Rain
3:15 AM 35.6 °F - 32.4 °F 88% 30.17 in 5.0 mi Calm Calm - 0.01 in Rain Light Rain
3:35 AM 35.6 °F 31.7 °F 32.7 °F 89% 30.18 in 4.0 mi East 4.6 mph - 0.02 in Rain Rain
3:55 AM 34.0 °F 31.0 °F 32.0 °F 92% 30.18 in 4.0 mi East 3.5 mph - 0.03 in Rain Light Rain
4:15 AM 33.8 °F 28.6 °F 32.2 °F 94% 30.17 in 10.0 mi NE 5.8 mph - N/A   Drizzle
4:35 AM 33.8 °F 29.6 °F 32.2 °F 94% 30.17 in 3.0 mi NNE 4.6 mph - 0.01 in Rain Rain
4:55 AM 33.6 °F - 32.2 °F 94% 30.18 in 7.0 mi Calm Calm - 0.01 in Rain Rain
5:15 AM 33.8 °F - 32.2 °F 94% 30.17 in 7.0 mi Calm Calm - N/A   Drizzle
5:35 AM 33.8 °F - 32.4 °F 94% 30.17 in 7.0 mi Calm Calm - N/A Rain Rain
5:55 AM 34.2 °F - 32.9 °F 95% 30.18 in 10.0 mi Calm Calm - N/A   Drizzle
6:15 AM 34.0 °F - 32.4 °F 94% 30.19 in 5.0 mi Calm Calm - N/A Snow Light Snow
6:35 AM 33.8 °F 30.8 °F 32.4 °F 94% 30.19 in 10.0 mi NW 3.5 mph - N/A   Light Drizzle
6:55 AM 34.3 °F 31.4 °F 32.5 °F 93% 30.19 in 10.0 mi North 3.5 mph - N/A   Overcast
7:15 AM 34.7 °F 30.6 °F 32.7 °F 92% 30.20 in 10.0 mi NNE 4.6 mph - N/A   Overcast
7:35 AM 35.1 °F 32.2 °F 32.9 °F 92% 30.21 in 10.0 mi North 3.5 mph - N/A   Overcast
7:55 AM 35.2 °F 31.2 °F 32.7 °F 91% 30.21 in 10.0 mi NE 4.6 mph - N/A   Overcast
8:15 AM 35.8 °F - 32.7 °F 89% 30.21 in 10.0 mi Calm Calm - N/A   Overcast
8:35 AM 36.1 °F - 32.5 °F 87% 30.22 in 10.0 mi Calm Calm - N/A   Overcast
8:55 AM 36.5 °F 33.9 °F 32.9 °F 87% 30.23 in 10.0 mi South 3.5 mph - N/A   Overcast
9:15 AM 36.7 °F 34.1 °F 32.7 °F 86% 30.23 in 10.0 mi South 3.5 mph - N/A   Overcast
9:35 AM 38.5 °F 32.1 °F 34.0 °F 84% 30.22 in 10.0 mi SSE 9.2 mph - N/A   Overcast
9:55 AM 38.3 °F 31.4 °F 34.0 °F 84% 30.22 in 10.0 mi South 10.4 mph - N/A   Overcast
10:15 AM 38.3 °F 31.9 °F 34.3 °F 86% 30.22 in 10.0 mi SSW 9.2 mph - N/A   Overcast
10:35 AM 38.7 °F 32.4 °F 34.5 °F 85% 30.22 in 10.0 mi SSW 9.2 mph - N/A   Overcast
10:55 AM 39.6 °F 33.5 °F 34.9 °F 83% 30.22 in 10.0 mi South 9.2 mph - N/A   Overcast
11:15 AM 39.6 °F 34.7 °F 34.9 °F 83% 30.22 in 10.0 mi South 6.9 mph - N/A   Overcast
11:35 AM 40.1 °F 36.1 °F 34.7 °F 81% 30.22 in 10.0 mi South 5.8 mph - N/A   Overcast
11:55 AM 41.9 °F 40.0 °F 35.2 °F 77% 30.21 in 10.0 mi South 3.5 mph - N/A   Overcast
12:15 PM 42.4 °F - 35.4 °F 76% 30.20 in 10.0 mi Calm Calm - N/A   Overcast
12:35 PM 42.8 °F - 35.8 °F 76% 30.19 in 10.0 mi Calm Calm - N/A   Mostly Cloudy
12:55 PM 45.7 °F 44.4 °F 37.0 °F 72% 30.17 in 10.0 mi SE 3.5 mph - N/A   Mostly Cloudy
1:15 PM 46.4 °F - 37.0 °F 70% 30.16 in 10.0 mi Calm Calm - N/A   Scattered Clouds
1:35 PM 48.7 °F - 37.6 °F 65% 30.14 in 10.0 mi West 4.6 mph - N/A   Scattered Clouds
1:55 PM 49.3 °F - 36.7 °F 62% 30.14 in 10.0 mi WNW 3.5 mph - N/A   Scattered Clouds
2:15 PM 50.2 °F - 37.2 °F 61% 30.14 in 10.0 mi WNW 6.9 mph - N/A   Mostly Cloudy
2:35 PM 53.2 °F - 35.8 °F 52% 30.13 in 10.0 mi WNW 10.4 mph 17.3 mph N/A   Scattered Clouds
2:55 PM 53.2 °F - 35.2 °F 51% 30.13 in 10.0 mi NNW 5.8 mph - N/A   Mostly Cloudy
3:15 PM 51.8 °F - 33.3 °F 49% 30.13 in 10.0 mi NW 8.1 mph - N/A   Scattered Clouds
3:35 PM 55.8 °F - 30.4 °F 38% 30.13 in 10.0 mi West 13.8 mph 24.2 mph N/A   Scattered Clouds
3:55 PM 55.9 °F - 29.1 °F 36% 30.12 in 10.0 mi West 19.6 mph 24.2 mph N/A   Scattered Clouds
4:15 PM 55.8 °F - 28.2 °F 35% 30.12 in 10.0 mi West 17.3 mph 23.0 mph N/A   Clear
4:35 PM 55.4 °F - 28.6 °F 36% 30.12 in 10.0 mi West 12.7 mph 17.3 mph N/A   Clear
4:55 PM 55.6 °F - 28.2 °F 35% 30.12 in 10.0 mi WNW 9.2 mph 17.3 mph N/A   Clear
5:15 PM 54.9 °F - 25.0 °F 32% 30.12 in 10.0 mi West 13.8 mph 17.3 mph N/A   Clear
5:35 PM 53.8 °F - 24.3 °F 32% 30.12 in 10.0 mi NW 12.7 mph - N/A   Clear
5:55 PM 51.8 °F - 21.9 °F 31% 30.13 in 10.0 mi NW 13.8 mph - N/A   Clear
6:15 PM 49.3 °F - 19.6 °F 31% 30.13 in 10.0 mi NW 13.8 mph - N/A   Clear
6:35 PM 46.8 °F - 19.4 °F 34% 30.13 in 10.0 mi NW 13.8 mph - N/A   Clear
6:55 PM 45.9 °F 39.7 °F 18.5 °F 34% 30.14 in 10.0 mi NW 13.8 mph - N/A   Clear
7:15 PM 44.2 °F 39.2 °F 19.6 °F 37% 30.15 in 10.0 mi NW 9.2 mph - N/A   Clear
7:35 PM 42.8 °F 40.1 °F 20.3 °F 41% 30.16 in 10.0 mi NW 4.6 mph - N/A   Clear
7:55 PM 41.7 °F - 21.4 °F 44% 30.16 in 10.0 mi Calm Calm - N/A   Clear
8:15 PM 42.4 °F - 20.5 °F 42% 30.17 in 10.0 mi Calm Calm - N/A   Clear
8:35 PM 44.1 °F 40.8 °F 17.8 °F 35% 30.17 in 10.0 mi West 5.8 mph - N/A   Clear
8:55 PM 43.3 °F 38.1 °F 18.1 °F 36% 30.17 in 10.0 mi WNW 9.2 mph - N/A   Clear
9:15 PM 39.7 °F 33.7 °F 20.1 °F 45% 30.18 in 10.0 mi WNW 9.2 mph - N/A   Clear
9:35 PM 39.4 °F 33.2 °F 19.4 °F 45% 30.17 in 10.0 mi WNW 9.2 mph - N/A   Clear
9:55 PM 37.4 °F 32.8 °F 19.9 °F 49% 30.18 in 10.0 mi West 5.8 mph - N/A   Clear
10:15 PM 37.0 °F 33.3 °F 19.6 °F 49% 30.18 in 10.0 mi ENE 4.6 mph - N/A   Clear
10:35 PM 37.2 °F 33.6 °F 17.1 °F 44% 30.18 in 10.0 mi West 4.6 mph - N/A   Clear
10:55 PM 34.5 °F 30.4 °F 18.0 °F 51% 30.18 in 10.0 mi North 4.6 mph - N/A   Clear
11:15 PM 35.2 °F 29.5 °F 17.4 °F 48% 30.18 in 10.0 mi NW 6.9 mph - N/A   Clear
11:35 PM 31.5 °F 28.1 °F 20.3 °F 63% 30.18 in 10.0 mi SE 3.5 mph - N/A   Clear
11:55 PM 32.0 °F - 20.5 °F 63% 30.18 in 10.0 mi Calm Calm - N/A   Clear